Location: La Pernelle
(49.6188°N, 1.2999°W)
Time: 11:28:07
(UTC+00:00)

Cosmos 1331 Rocket - Pass Details

Date: 12 June 2021
Orbit: 749 x 778 km, 74.0° (Epoch: 27 July)

Event Time Altitude Azimuth Distance (km) Brightness Sun altitude
Exits shadow 22:16:10 18° 172° (S) 1,810 5.3 -13.2°
Maximum altitude 22:19:47 47° 105° (ESE) 1,019 4.4 -13.5°
Drops below altitude 10° 22:24:48 10° 34° (NNE) 2,325 6.9 -13.8°
Sets 22:27:16 0° 28° (NNE) 3,261 7.8 -14.0°
